Time,TemperatureF,DewpointF,PressureIn,WindDirection,WindDirectionDegrees,WindSpeedMPH,WindSpeedGustMPH,Humidity,HourlyPrecipIn,Conditions,Clouds,dailyrainin,SolarRadiationWatts/m^2,SoftwareType,DateUTC
2013-01-29 00:04:00,14.0,10.0,-100.00,ESE,120,1.0,2.0,84,0.00,,,0.00,0.000000,,2013-01-29 05:04:00,
2013-01-29 00:10:00,15.0,11.0,-100.00,NE,42,0.0,2.0,85,0.00,,,0.00,0.000000,,2013-01-29 05:10:00,
2013-01-29 00:32:00,15.0,11.0,-100.00,NE,42,0.0,2.0,85,0.00,,,0.00,0.000000,,2013-01-29 05:32:00,
2013-01-29 00:43:00,15.0,11.0,-100.00,NE,42,0.0,2.0,85,0.00,,,0.00,0.000000,,2013-01-29 05:43:00,
2013-01-29 00:52:00,15.0,11.0,-100.00,NE,42,0.0,2.0,85,0.00,,,0.00,0.000000,,2013-01-29 05:52:00,
2013-01-29 01:02:00,15.0,11.0,-100.00,NE,42,0.0,2.0,85,0.00,,,0.00,0.000000,,2013-01-29 06:02:00,
2013-01-29 01:10:00,15.0,11.0,-100.00,WNW,294,1.0,2.0,85,0.00,,,0.00,0.000000,,2013-01-29 06:10:00,
2013-01-29 01:32:00,15.0,11.0,-100.00,WNW,294,1.0,2.0,85,0.00,,,0.00,0.000000,,2013-01-29 06:32:00,
2013-01-29 01:42:00,15.0,11.0,-100.00,WNW,294,1.0,2.0,85,0.00,,,0.00,0.000000,,2013-01-29 06:42:00,
2013-01-29 01:52:00,15.0,11.0,-100.00,WNW,294,1.0,2.0,85,0.00,,,0.00,0.000000,,2013-01-29 06:52:00,
2013-01-29 02:02:00,15.0,11.0,-100.00,WNW,294,1.0,2.0,85,0.00,,,0.00,0.000000,,2013-01-29 07:02:00,
2013-01-29 02:10:00,12.0,8.0,-100.00,SE,127,0.0,3.0,84,0.00,,,0.00,0.000000,,2013-01-29 07:10:00,
2013-01-29 02:32:00,12.0,8.0,-100.00,SE,127,0.0,3.0,84,0.00,,,0.00,0.000000,,2013-01-29 07:32:00,
2013-01-29 02:42:00,12.0,8.0,-100.00,SE,127,0.0,3.0,84,0.00,,,0.00,0.000000,,2013-01-29 07:42:00,
2013-01-29 02:52:00,12.0,8.0,-100.00,SE,127,0.0,3.0,84,0.00,,,0.00,0.000000,,2013-01-29 07:52:00,
2013-01-29 03:02:00,12.0,8.0,-100.00,SE,127,0.0,3.0,84,0.00,,,0.00,0.000000,,2013-01-29 08:02:00,
2013-01-29 03:10:00,8.0,4.0,-100.00,East,94,1.0,3.0,82,0.00,,,0.00,0.000000,,2013-01-29 08:10:00,
2013-01-29 03:32:00,8.0,4.0,-100.00,East,94,1.0,3.0,82,0.00,,,0.00,0.000000,,2013-01-29 08:32:00,
2013-01-29 03:42:00,8.0,4.0,-100.00,East,94,1.0,3.0,82,0.00,,,0.00,0.000000,,2013-01-29 08:42:00,
2013-01-29 03:52:00,8.0,4.0,-100.00,East,94,1.0,3.0,82,0.00,,,0.00,0.000000,,2013-01-29 08:52:00,
2013-01-29 04:02:00,8.0,4.0,-100.00,East,94,1.0,3.0,82,0.00,,,0.00,0.000000,,2013-01-29 09:02:00,
2013-01-29 04:10:00,5.0,0.0,-100.00,SE,129,1.0,2.0,81,0.00,,,0.00,0.000000,,2013-01-29 09:10:00,
2013-01-29 04:32:00,5.0,0.0,-100.00,SE,129,1.0,2.0,81,0.00,,,0.00,0.000000,,2013-01-29 09:32:00,
2013-01-29 04:42:00,5.0,0.0,-100.00,SE,129,1.0,2.0,81,0.00,,,0.00,0.000000,,2013-01-29 09:42:00,
2013-01-29 04:52:00,5.0,0.0,-100.00,SE,129,1.0,2.0,81,0.00,,,0.00,0.000000,,2013-01-29 09:52:00,
2013-01-29 05:02:00,5.0,0.0,-100.00,SE,129,1.0,2.0,81,0.00,,,0.00,0.000000,,2013-01-29 10:02:00,
2013-01-29 05:10:00,3.0,-2.0,-100.00,East,87,1.0,2.0,79,0.00,,,0.00,0.000000,,2013-01-29 10:10:00,
2013-01-29 05:42:00,3.0,-2.0,-100.00,East,87,1.0,2.0,79,0.00,,,0.00,0.000000,,2013-01-29 10:42:00,
2013-01-29 05:52:00,3.0,-2.0,-100.00,East,87,1.0,2.0,79,0.00,,,0.00,0.000000,,2013-01-29 10:52:00,
2013-01-29 06:02:00,3.0,-2.0,-100.00,East,87,1.0,2.0,79,0.00,,,0.00,0.000000,,2013-01-29 11:02:00,
2013-01-29 06:10:00,1.0,-4.0,-100.00,East,88,1.0,2.0,78,0.00,,,0.00,0.000000,,2013-01-29 11:10:00,
2013-01-29 06:32:00,1.0,-4.0,-100.00,East,88,1.0,2.0,78,0.00,,,0.00,0.000000,,2013-01-29 11:32:00,
2013-01-29 06:42:00,1.0,-4.0,-100.00,East,88,1.0,2.0,78,0.00,,,0.00,0.000000,,2013-01-29 11:42:00,
2013-01-29 06:53:00,1.0,-4.0,-100.00,East,88,1.0,2.0,78,0.00,,,0.00,0.000000,,2013-01-29 11:53:00,
2013-01-29 07:03:00,1.0,-4.0,-100.00,East,88,1.0,2.0,78,0.00,,,0.00,0.000000,,2013-01-29 12:03:00,
2013-01-29 07:10:00,-1.0,-6.0,-100.00,East,91,2.0,3.0,77,0.00,,,0.00,0.000000,,2013-01-29 12:10:00,
2013-01-29 07:33:00,-1.0,-6.0,-100.00,East,91,2.0,3.0,77,0.00,,,0.00,0.000000,,2013-01-29 12:33:00,
2013-01-29 07:43:00,-1.0,-6.0,-100.00,East,91,2.0,3.0,77,0.00,,,0.00,0.000000,,2013-01-29 12:43:00,
2013-01-29 07:53:00,-1.0,-6.0,-100.00,East,91,2.0,3.0,77,0.00,,,0.00,0.000000,,2013-01-29 12:53:00,
2013-01-29 08:02:00,-1.0,-6.0,-100.00,East,91,2.0,3.0,77,0.00,,,0.00,0.000000,,2013-01-29 13:02:00,
2013-01-29 08:10:00,1.0,-5.0,-100.00,East,79,1.0,2.0,76,0.00,,,0.00,2.000000,,2013-01-29 13:10:00,
2013-01-29 08:43:00,1.0,-5.0,-100.00,East,79,1.0,2.0,76,0.00,,,0.00,2.000000,,2013-01-29 13:43:00,
2013-01-29 08:53:00,1.0,-5.0,-100.00,East,79,1.0,2.0,76,0.00,,,0.00,2.000000,,2013-01-29 13:53:00,
2013-01-29 09:02:00,1.0,-5.0,-100.00,East,79,1.0,2.0,76,0.00,,,0.00,2.000000,,2013-01-29 14:02:00,
2013-01-29 09:10:00,7.0,2.0,-100.00,WSW,249,1.0,3.0,78,0.00,,,0.00,8.000000,,2013-01-29 14:10:00,
2013-01-29 09:33:00,7.0,2.0,-100.00,WSW,249,1.0,3.0,78,0.00,,,0.00,8.000000,,2013-01-29 14:33:00,
2013-01-29 09:43:00,7.0,2.0,-100.00,WSW,249,1.0,3.0,78,0.00,,,0.00,8.000000,,2013-01-29 14:43:00,
2013-01-29 09:53:00,7.0,2.0,-100.00,WSW,249,1.0,3.0,78,0.00,,,0.00,8.000000,,2013-01-29 14:53:00,
2013-01-29 10:03:00,7.0,2.0,-100.00,WSW,249,1.0,3.0,78,0.00,,,0.00,8.000000,,2013-01-29 15:03:00,
2013-01-29 10:10:00,14.0,8.0,-100.00,West,271,2.0,4.0,78,0.00,,,0.00,10.000000,,2013-01-29 15:10:00,
2013-01-29 10:33:00,14.0,8.0,-100.00,West,271,2.0,4.0,78,0.00,,,0.00,10.000000,,2013-01-29 15:33:00,
2013-01-29 10:43:00,14.0,8.0,-100.00,West,271,2.0,4.0,78,0.00,,,0.00,10.000000,,2013-01-29 15:43:00,
2013-01-29 10:53:00,14.0,8.0,-100.00,West,271,2.0,4.0,78,0.00,,,0.00,10.000000,,2013-01-29 15:53:00,
2013-01-29 11:03:00,14.0,8.0,-100.00,West,271,2.0,4.0,78,0.00,,,0.00,10.000000,,2013-01-29 16:03:00,
2013-01-29 11:10:00,22.0,15.0,-100.00,NNW,339,1.0,6.0,75,0.00,,,0.00,17.000000,,2013-01-29 16:10:00,
2013-01-29 11:43:00,22.0,15.0,-100.00,NNW,339,1.0,6.0,75,0.00,,,0.00,17.000000,,2013-01-29 16:43:00,
2013-01-29 11:53:00,22.0,15.0,-100.00,NNW,339,1.0,6.0,75,0.00,,,0.00,17.000000,,2013-01-29 16:53:00,
2013-01-29 12:03:00,22.0,15.0,-100.00,NNW,339,1.0,6.0,75,0.00,,,0.00,17.000000,,2013-01-29 17:03:00,
2013-01-29 12:10:00,26.0,17.0,-100.00,SW,216,2.0,4.0,67,0.00,,,0.00,22.000000,,2013-01-29 17:10:00,
2013-01-29 12:42:00,26.0,17.0,-100.00,SW,216,2.0,4.0,67,0.00,,,0.00,22.000000,,2013-01-29 17:42:00,
2013-01-29 12:53:00,26.0,17.0,-100.00,SW,216,2.0,4.0,67,0.00,,,0.00,22.000000,,2013-01-29 17:53:00,
2013-01-29 13:04:00,26.0,17.0,-100.00,SW,216,2.0,4.0,67,0.00,,,0.00,22.000000,,2013-01-29 18:04:00,
2013-01-29 13:10:00,27.0,18.0,-100.00,WSW,244,2.0,5.0,69,0.00,,,0.00,23.000000,,2013-01-29 18:10:00,
2013-01-29 13:33:00,27.0,18.0,-100.00,WSW,244,2.0,5.0,69,0.00,,,0.00,23.000000,,2013-01-29 18:33:00,
2013-01-29 13:42:00,27.0,18.0,-100.00,WSW,244,2.0,5.0,69,0.00,,,0.00,23.000000,,2013-01-29 18:42:00,
2013-01-29 13:52:00,27.0,18.0,-100.00,WSW,244,2.0,5.0,69,0.00,,,0.00,23.000000,,2013-01-29 18:52:00,
2013-01-29 14:03:00,27.0,18.0,-100.00,WSW,244,2.0,5.0,69,0.00,,,0.00,23.000000,,2013-01-29 19:03:00,
2013-01-29 14:10:00,30.0,22.0,-100.00,NNW,327,1.0,4.0,71,0.00,,,0.00,17.000000,,2013-01-29 19:10:00,
2013-01-29 14:42:00,30.0,22.0,-100.00,NNW,327,1.0,4.0,71,0.00,,,0.00,17.000000,,2013-01-29 19:42:00,
2013-01-29 14:52:00,30.0,22.0,-100.00,NNW,327,1.0,4.0,71,0.00,,,0.00,17.000000,,2013-01-29 19:52:00,
2013-01-29 15:03:00,30.0,22.0,-100.00,NNW,327,1.0,4.0,71,0.00,,,0.00,17.000000,,2013-01-29 20:03:00,
2013-01-29 15:10:00,30.0,22.0,-100.00,SE,126,1.0,2.0,71,0.00,,,0.00,13.000000,,2013-01-29 20:10:00,
2013-01-29 15:33:00,30.0,22.0,-100.00,SE,126,1.0,2.0,71,0.00,,,0.00,13.000000,,2013-01-29 20:33:00,
2013-01-29 15:42:00,30.0,22.0,-100.00,SE,126,1.0,2.0,71,0.00,,,0.00,13.000000,,2013-01-29 20:42:00,
2013-01-29 15:53:00,30.0,22.0,-100.00,SE,126,1.0,2.0,71,0.00,,,0.00,13.000000,,2013-01-29 20:53:00,
2013-01-29 16:03:00,30.0,22.0,-100.00,SE,126,1.0,2.0,71,0.00,,,0.00,13.000000,,2013-01-29 21:03:00,
2013-01-29 16:10:00,28.0,21.0,-100.00,WSW,248,2.0,3.0,76,0.00,,,0.00,7.000000,,2013-01-29 21:10:00,
2013-01-29 16:42:00,28.0,21.0,-100.00,WSW,248,2.0,3.0,76,0.00,,,0.00,7.000000,,2013-01-29 21:42:00,
2013-01-29 16:53:00,28.0,21.0,-100.00,WSW,248,2.0,3.0,76,0.00,,,0.00,7.000000,,2013-01-29 21:53:00,
2013-01-29 17:03:00,28.0,21.0,-100.00,WSW,248,2.0,3.0,76,0.00,,,0.00,7.000000,,2013-01-29 22:03:00,
2013-01-29 17:10:00,25.0,21.0,-100.00,East,101,0.0,1.0,86,0.00,,,0.00,1.000000,,2013-01-29 22:10:00,
2013-01-29 17:43:00,25.0,21.0,-100.00,East,101,0.0,1.0,86,0.00,,,0.00,1.000000,,2013-01-29 22:43:00,
2013-01-29 17:53:00,25.0,21.0,-100.00,East,101,0.0,1.0,86,0.00,,,0.00,1.000000,,2013-01-29 22:53:00,
2013-01-29 18:02:00,25.0,21.0,-100.00,East,101,0.0,1.0,86,0.00,,,0.00,1.000000,,2013-01-29 23:02:00,
2013-01-29 18:10:00,22.0,19.0,-100.00,ENE,65,0.0,0.0,88,0.00,,,0.00,0.000000,,2013-01-29 23:10:00,
2013-01-29 18:33:00,22.0,19.0,-100.00,ENE,65,0.0,0.0,88,0.00,,,0.00,0.000000,,2013-01-29 23:33:00,
2013-01-29 18:42:00,22.0,19.0,-100.00,ENE,65,0.0,0.0,88,0.00,,,0.00,0.000000,,2013-01-29 23:42:00,
2013-01-29 18:53:00,22.0,19.0,-100.00,ENE,65,0.0,0.0,88,0.00,,,0.00,0.000000,,2013-01-29 23:53:00,
2013-01-29 19:03:00,22.0,19.0,-100.00,ENE,65,0.0,0.0,88,0.00,,,0.00,0.000000,,2013-01-30 00:03:00,
2013-01-29 19:10:00,22.0,19.0,-100.00,ENE,77,1.0,3.0,89,0.00,,,0.00,0.000000,,2013-01-30 00:10:00,
2013-01-29 19:33:00,22.0,19.0,-100.00,ENE,77,1.0,3.0,89,0.00,,,0.00,0.000000,,2013-01-30 00:33:00,
2013-01-29 19:43:00,22.0,19.0,-100.00,ENE,77,1.0,3.0,89,0.00,,,0.00,0.000000,,2013-01-30 00:43:00,
2013-01-29 19:53:00,22.0,19.0,-100.00,ENE,77,1.0,3.0,89,0.00,,,0.00,0.000000,,2013-01-30 00:53:00,
2013-01-29 20:02:00,22.0,19.0,-100.00,ENE,77,1.0,3.0,89,0.00,,,0.00,0.000000,,2013-01-30 01:02:00,
2013-01-29 20:10:00,24.0,21.0,-100.00,ENE,75,0.0,2.0,89,0.00,,,0.00,0.000000,,2013-01-30 01:10:00,
2013-01-29 20:32:00,24.0,21.0,-100.00,ENE,75,0.0,2.0,89,0.00,,,0.00,0.000000,,2013-01-30 01:32:00,
2013-01-29 20:43:00,24.0,21.0,-100.00,ENE,75,0.0,2.0,89,0.00,,,0.00,0.000000,,2013-01-30 01:43:00,
2013-01-29 20:52:00,24.0,21.0,-100.00,ENE,75,0.0,2.0,89,0.00,,,0.00,0.000000,,2013-01-30 01:52:00,
2013-01-29 21:02:00,24.0,21.0,-100.00,ENE,75,0.0,2.0,89,0.00,,,0.00,0.000000,,2013-01-30 02:02:00,
2013-01-29 21:10:00,25.0,22.0,-100.00,NE,54,0.0,2.0,89,0.00,,,0.00,0.000000,,2013-01-30 02:10:00,
2013-01-29 21:33:00,25.0,22.0,-100.00,NE,54,0.0,2.0,89,0.00,,,0.00,0.000000,,2013-01-30 02:33:00,
2013-01-29 21:42:00,25.0,22.0,-100.00,NE,54,0.0,2.0,89,0.00,,,0.00,0.000000,,2013-01-30 02:42:00,
2013-01-29 21:53:00,25.0,22.0,-100.00,NE,54,0.0,2.0,89,0.00,,,0.00,0.000000,,2013-01-30 02:53:00,
2013-01-29 22:03:00,25.0,22.0,-100.00,NE,54,0.0,2.0,89,0.00,,,0.00,0.000000,,2013-01-30 03:03:00,
2013-01-29 22:10:00,26.0,23.0,-100.00,ESE,107,2.0,4.0,90,0.00,,,0.00,0.000000,,2013-01-30 03:10:00,
2013-01-29 22:32:00,26.0,23.0,-100.00,ESE,107,2.0,4.0,90,0.00,,,0.00,0.000000,,2013-01-30 03:32:00,
2013-01-29 22:42:00,26.0,23.0,-100.00,ESE,107,2.0,4.0,90,0.00,,,0.00,0.000000,,2013-01-30 03:42:00,
2013-01-29 22:52:00,26.0,23.0,-100.00,ESE,107,2.0,4.0,90,0.00,,,0.00,0.000000,,2013-01-30 03:52:00,
2013-01-29 23:02:00,26.0,23.0,-100.00,ESE,107,2.0,4.0,90,0.00,,,0.00,0.000000,,2013-01-30 04:02:00,
2013-01-29 23:10:00,27.0,25.0,-100.00,SSW,195,0.0,3.0,91,0.00,,,0.00,0.000000,,2013-01-30 04:10:00,
2013-01-29 23:32:00,27.0,25.0,-100.00,SSW,195,0.0,3.0,91,0.00,,,0.00,0.000000,,2013-01-30 04:32:00,
2013-01-29 23:42:00,27.0,25.0,-100.00,SSW,195,0.0,3.0,91,0.00,,,0.00,0.000000,,2013-01-30 04:42:00,
2013-01-29 23:52:00,27.0,25.0,-100.00,SSW,195,0.0,3.0,91,0.00,,,0.00,0.000000,,2013-01-30 04:52:00,